• In Österreich
  • Länderverzeichnis
  • Für 7 Tage
  • Wassertemperatur
  • Satellitenkarten
  • Wetterkarte
  • News
  • Widgets
  • user-avatar
    Anmelden

    Stündliche Wetter Ordino

    Heute, 18 Dezember, Montag

    Zeit Temperatur Niederschläge Wind Luftdruck Luftfeuchtigkeit
    00:00 -4°C° 0 mm 2 m/S 638 mmHg 80%
    01:00 -4°C° 0 mm 2 m/S 638 mmHg 81%
    02:00 -5°C° 0 mm 3 m/S 638 mmHg 81%
    03:00 -6°C° 0 mm 3 m/S 637 mmHg 82%
    04:00 -6°C° 0 mm 3 m/S 637 mmHg 81%
    05:00 -5°C° 0 mm 3 m/S 637 mmHg 81%
    06:00 -5°C° 0 mm 3 m/S 637 mmHg 81%
    07:00 -4°C° 0 mm 3 m/S 637 mmHg 78%
    08:00 -2°C° 0 mm 2 m/S 638 mmHg 75%
    09:00 -1°C° 0 mm 2 m/S 638 mmHg 73%
    10:00 +1°C° 0,2 mm 2 m/S 638 mmHg 73%
    11:00 0°C° 0,2 mm 3 m/S 637 mmHg 73%
    12:00 +1°C° 0 mm 3 m/S 637 mmHg 74%
    13:00 +1°C° 1,1 mm 3 m/S 636 mmHg 77%
    14:00 +1°C° 1,1 mm 3 m/S 635 mmHg 80%
    15:00 0°C° 1,1 mm 3 m/S 635 mmHg 83%
    16:00 0°C° 1,3 mm 3 m/S 634 mmHg 86%
    17:00 0°C° 1,3 mm 3 m/S 634 mmHg 89%
    18:00 -1°C° 1,3 mm 4 m/S 634 mmHg 91%
    19:00 -1°C° 0,5 mm 4 m/S 634 mmHg 91%
    20:00 -2°C° 0,5 mm 4 m/S 635 mmHg 91%
    21:00 -2°C° 0,5 mm 4 m/S 635 mmHg 91%
    22:00 -2°C° 0,1 mm 3 m/S 635 mmHg 91%
    23:00 -4°C° 0,1 mm 3 m/S 635 mmHg 91%

    Morgen, 19 Dezember, Dienstag

    Zeit Temperatur Niederschläge Wind Luftdruck Luftfeuchtigkeit
    00:00 -5°C° 0,1 mm 3 m/S 636 mmHg 91%
    01:00 -5°C° 0 mm 3 m/S 636 mmHg 91%
    02:00 -6°C° 0 mm 3 m/S 636 mmHg 90%
    03:00 -7°C° 0 mm 3 m/S 636 mmHg 90%
    04:00 -7°C° 0 mm 3 m/S 636 mmHg 88%
    05:00 -7°C° 0 mm 3 m/S 637 mmHg 86%
    06:00 -8°C° 0 mm 3 m/S 637 mmHg 85%
    07:00 -7°C° 0 mm 3 m/S 638 mmHg 81%
    08:00 -6°C° 0 mm 3 m/S 638 mmHg 76%
    09:00 -4°C° 0 mm 2 m/S 639 mmHg 72%
    10:00 -2°C° 0 mm 2 m/S 640 mmHg 69%
    11:00 -1°C° 0 mm 2 m/S 640 mmHg 66%
    12:00 +2°C° 0 mm 2 m/S 641 mmHg 63%
    13:00 0°C° 0 mm 3 m/S 641 mmHg 66%
    14:00 0°C° 0 mm 3 m/S 640 mmHg 69%
    15:00 -1°C° 0 mm 3 m/S 640 mmHg 71%
    16:00 -2°C° 0 mm 3 m/S 640 mmHg 77%
    17:00 -4°C° 0 mm 2 m/S 640 mmHg 82%
    18:00 -5°C° 0 mm 2 m/S 639 mmHg 87%
    19:00 -5°C° 0 mm 2 m/S 639 mmHg 87%
    20:00 -6°C° 0 mm 2 m/S 639 mmHg 86%
    21:00 -6°C° 0 mm 2 m/S 640 mmHg 86%
    22:00 -6°C° 0 mm 2 m/S 640 mmHg 84%
    23:00 -5°C° 0 mm 2 m/S 640 mmHg 83%

    übermorgen, 20 Dezember, Mittwoch

    Zeit Temperatur Niederschläge Wind Luftdruck Luftfeuchtigkeit
    00:00 -5°C° 0 mm 2 m/S 639 mmHg 81%
    01:00 -5°C° 0 mm 2 m/S 639 mmHg 80%
    02:00 -5°C° 0 mm 2 m/S 639 mmHg 80%
    03:00 -5°C° 0 mm 2 m/S 639 mmHg 79%
    04:00 -4°C° 0 mm 2 m/S 639 mmHg 80%
    05:00 -4°C° 0 mm 2 m/S 639 mmHg 81%
    06:00 -5°C° 0 mm 3 m/S 639 mmHg 82%
    07:00 -4°C° 0 mm 3 m/S 640 mmHg 80%
    08:00 -2°C° 0 mm 3 m/S 640 mmHg 79%
    09:00 -1°C° 0 mm 3 m/S 641 mmHg 78%
    10:00 0°C° 0 mm 3 m/S 641 mmHg 76%
    11:00 +1°C° 0 mm 3 m/S 641 mmHg 74%
    12:00 +2°C° 0 mm 3 m/S 641 mmHg 72%
    13:00 +2°C° 0 mm 3 m/S 641 mmHg 73%
    14:00 +1°C° 0 mm 3 m/S 641 mmHg 74%
    15:00 +1°C° 0 mm 3 m/S 640 mmHg 74%
    16:00 0°C° 0 mm 3 m/S 640 mmHg 79%
    17:00 -1°C° 0 mm 3 m/S 640 mmHg 83%
    18:00 -4°C° 0 mm 3 m/S 640 mmHg 87%
    19:00 -4°C° 0 mm 3 m/S 640 mmHg 87%
    20:00 -3°C° 0 mm 2 m/S 641 mmHg 86%
    21:00 -3°C° 0 mm 2 m/S 641 mmHg 86%
    22:00 -2°C° 0 mm 2 m/S 641 mmHg 85%
    23:00 -2°C° 0 mm 2 m/S 641 mmHg 85%

    21 Dezember, Donnerstag

    Zeit Temperatur Niederschläge Wind Luftdruck Luftfeuchtigkeit
    00:00 -2°C° 0 mm 2 m/S 642 mmHg 84%
    01:00 -2°C° 0 mm 2 m/S 642 mmHg 85%
    02:00 -2°C° 0 mm 2 m/S 642 mmHg 85%
    03:00 -2°C° 0 mm 2 m/S 641 mmHg 85%
    04:00 -2°C° 0 mm 2 m/S 641 mmHg 86%
    05:00 -2°C° 0 mm 2 m/S 641 mmHg 86%
    06:00 -2°C° 0 mm 2 m/S 641 mmHg 86%
    07:00 -2°C° 0 mm 2 m/S 642 mmHg 84%
    08:00 -1°C° 0 mm 2 m/S 643 mmHg 81%
    09:00 +1°C° 0 mm 2 m/S 643 mmHg 79%
    10:00 +2°C° 0 mm 2 m/S 644 mmHg 77%
    11:00 +3°C° 0 mm 2 m/S 644 mmHg 75%
    12:00 +4°C° 0 mm 2 m/S 644 mmHg 74%
    13:00 +4°C° 0 mm 2 m/S 644 mmHg 75%
    14:00 +4°C° 0 mm 2 m/S 644 mmHg 76%
    15:00 +4°C° 0 mm 2 m/S 644 mmHg 78%
    16:00 +2°C° 0 mm 2 m/S 643 mmHg 81%
    17:00 +1°C° 0 mm 2 m/S 643 mmHg 84%
    18:00 -2°C° 0 mm 2 m/S 643 mmHg 87%
    19:00 -2°C° 0 mm 2 m/S 643 mmHg 86%
    20:00 -2°C° 0 mm 2 m/S 643 mmHg 84%
    21:00 -2°C° 0 mm 2 m/S 643 mmHg 83%
    22:00 -2°C° 0 mm 2 m/S 643 mmHg 82%
    23:00 -2°C° 0 mm 2 m/S 643 mmHg 81%

    22 Dezember, Freitag

    Zeit Temperatur Niederschläge Wind Luftdruck Luftfeuchtigkeit
    00:00 -2°C° 0 mm 2 m/S 643 mmHg 81%
    01:00 -2°C° 0 mm 2 m/S 642 mmHg 80%
    02:00 -2°C° 0 mm 3 m/S 642 mmHg 80%
    03:00 -2°C° 0 mm 3 m/S 642 mmHg 79%
    04:00 -2°C° 0 mm 3 m/S 642 mmHg 79%
    05:00 -2°C° 0 mm 3 m/S 642 mmHg 79%
    06:00 -2°C° 0 mm 3 m/S 642 mmHg 79%
    07:00 -1°C° 0 mm 3 m/S 642 mmHg 78%
    08:00 -1°C° 0 mm 3 m/S 642 mmHg 77%
    09:00 0°C° 0 mm 3 m/S 643 mmHg 76%
    10:00 +1°C° 0 mm 3 m/S 643 mmHg 75%
    11:00 +2°C° 0 mm 3 m/S 643 mmHg 74%
    12:00 +3°C° 0 mm 3 m/S 643 mmHg 73%
    13:00 +3°C° 0 mm 3 m/S 643 mmHg 75%
    14:00 +2°C° 0 mm 3 m/S 642 mmHg 76%
    15:00 +2°C° 0 mm 3 m/S 642 mmHg 78%
    16:00 +1°C° 0 mm 3 m/S 641 mmHg 80%
    17:00 0°C° 0 mm 3 m/S 641 mmHg 82%
    18:00 -1°C° 0 mm 3 m/S 641 mmHg 84%
    19:00 -1°C° 0 mm 3 m/S 641 mmHg 84%
    20:00 -1°C° 0 mm 3 m/S 641 mmHg 84%
    21:00 -1°C° 0 mm 3 m/S 641 mmHg 84%
    22:00 -2°C° 0 mm 3 m/S 641 mmHg 84%
    23:00 -2°C° 0 mm 3 m/S 641 mmHg 85%

    23 Dezember, Samstag

    Zeit Temperatur Niederschläge Wind Luftdruck Luftfeuchtigkeit
    00:00 -4°C° 0 mm 3 m/S 640 mmHg 85%
    01:00 -4°C° 0 mm 3 m/S 640 mmHg 84%
    02:00 -4°C° 0 mm 3 m/S 640 mmHg 84%
    03:00 -4°C° 0 mm 3 m/S 640 mmHg 84%
    04:00 -4°C° 0 mm 3 m/S 639 mmHg 83%
    05:00 -4°C° 0 mm 3 m/S 639 mmHg 82%
    06:00 -4°C° 0 mm 3 m/S 639 mmHg 81%
    07:00 -2°C° 0 mm 3 m/S 640 mmHg 78%
    08:00 -2°C° 0 mm 3 m/S 640 mmHg 74%
    09:00 -1°C° 0 mm 3 m/S 640 mmHg 71%
    10:00 +1°C° 0 mm 3 m/S 641 mmHg 68%
    11:00 +2°C° 0 mm 3 m/S 641 mmHg 65%
    12:00 +4°C° 0 mm 3 m/S 641 mmHg 62%
    13:00 +3°C° 0 mm 3 m/S 641 mmHg 64%
    14:00 +3°C° 0 mm 3 m/S 640 mmHg 66%
    15:00 +2°C° 0 mm 3 m/S 640 mmHg 68%
    16:00 +1°C° 0 mm 3 m/S 639 mmHg 70%
    17:00 -1°C° 0 mm 2 m/S 639 mmHg 72%
    18:00 -3°C° 0 mm 2 m/S 639 mmHg 74%
    19:00 -3°C° 0 mm 2 m/S 639 mmHg 71%
    20:00 -3°C° 0 mm 2 m/S 639 mmHg 67%
    21:00 -3°C° 0 mm 2 m/S 639 mmHg 64%
    22:00 -3°C° 0 mm 2 m/S 639 mmHg 62%
    23:00 -3°C° 0 mm 2 m/S 639 mmHg 59%
    Mehr zeigen